Weather History for Chicago, IL

Change the Weather History Date:

Monday, March 3, 2014

  Actual Average Record
Temperature  
Mean Temperature 9 °F 33 °F  
Max Temperature 19 °F 41 °F 80 °F (1974)
Min Temperature -2 °F 25 °F -6 °F (1873)
Degree Days  
Heating Degree Days 56 32  
Month to date heating degree days 157 97  
Since 1 July heating degree days 5572 4831  
Cooling Degree Days 0 0  
Month to date cooling degree days 0 0  
Year to date cooling degree days 0 0  
Moisture  
Dew Point -4 °F    
Average Humidity 57    
Maximum Humidity 69    
Minimum Humidity 44    
Precipitation  
Precipitation T in 0.08 in 1.21 in (1966)
Month to date precipitation 0.38 0.23  
Year to date precipitation 5.68 3.75  
Snow  
Snow T in 0.20 in 3.90 in (1960)
Month to date snowfall 5.1 0.7  
Since 1 July snowfall 73.4 30.3  
Snow Depth 6.00 in    
Sea Level Pressure  
Sea Level Pressure 30.46 in    
Wind  
Wind Speed 5 mph (NW)    
Max Wind Speed 14 mph    
Max Gust Speed 22 mph    
Visibility 9 miles    
Events Snow    
T = Trace of Precipitation, MM = Missing Value Source: NWS Daily Summary

Daily Weather History Graph

Daily Weather History Graph

Search for Another Location

Airport:

Trip Planner

Search our weather history database for the weather conditions in past years. The results will help you decide how hot, cold, wet, or windy it might be!

Date:

Astronomy

Mar. 03, 2014 Rise Set
Actual Time 6:23 AM CST 5:44 PM CST
Civil Twilight 5:55 AM CST 6:12 PM CST
Nautical Twilight 5:23 AM CST 6:44 PM CST
Astronomical Twilight 4:50 AM CST 7:17 PM CST
Moon 7:28 AM CST (3/3) 8:50 PM CST (3/3)
Length of Visible Light 12h 16m
Length of Day
11h 20m
Waxing Crescent, 8% of the Moon is Illuminated
Mar 3
Waxing Crescent
Mar 8
First Quarter
Mar 16
Full
Mar 23
Last Quarter
Mar 30
New

Hourly Weather History & Observations

Time (CST) Temp. Windchill Dew Point Humidity Pressure Visibility Wind Dir Wind Speed Gust Speed Precip Events Conditions
12:51 AM 1.9 °F -14.7 °F -16.1 °F 43% 30.46 in 10.0 mi North 11.5 mph - N/A   Mostly Cloudy
1:51 AM 1.0 °F -14.0 °F -16.1 °F 45% 30.46 in 10.0 mi NNW 9.2 mph - N/A   Scattered Clouds
2:51 AM -0.0 °F -16.3 °F -17.0 °F 45% 30.45 in 10.0 mi NNW 10.4 mph - N/A   Partly Cloudy
3:51 AM -0.9 °F -16.4 °F -17.0 °F 47% 30.46 in 10.0 mi North 9.2 mph - N/A   Scattered Clouds
4:51 AM -0.9 °F -19.1 °F -17.0 °F 47% 30.46 in 10.0 mi North 12.7 mph - N/A   Scattered Clouds
5:51 AM -0.9 °F -18.3 °F -15.0 °F 52% 30.48 in 10.0 mi NNW 11.5 mph - N/A   Partly Cloudy
6:51 AM -0.0 °F -18.0 °F -13.0 °F 54% 30.48 in 10.0 mi North 12.7 mph - N/A   Partly Cloudy
7:51 AM 3.0 °F -10.5 °F -9.0 °F 57% 30.50 in 10.0 mi North 8.1 mph - 0.00 in Snow Light Snow
8:08 AM 3.2 °F -9.1 °F -9.4 °F 56% 30.45 in 9.0 mi North 6.9 mph - 0.00 in Snow Light Snow
8:51 AM 6.1 °F -0.9 °F -5.1 °F 60% 30.51 in 4.0 mi NNE 3.5 mph - 0.00 in Snow Light Snow
9:51 AM 9.0 °F - -0.9 °F 64% 30.52 in 3.0 mi Calm Calm - 0.00 in Snow Light Snow
10:51 AM 14.0 °F - 3.9 °F 64% 30.52 in 3.0 mi Calm Calm - 0.00 in Snow Light Snow
11:19 AM 14.0 °F 8.2 °F 6.8 °F 73% 30.48 in 2.0 mi Variable 3.5 mph - 0.00 in Snow Light Snow
11:51 AM 12.9 °F 6.9 °F 3.9 °F 67% 30.52 in 5.0 mi Variable 3.5 mph - 0.00 in Snow Light Snow
12:51 PM 15.1 °F - 3.9 °F 61% 30.52 in 9.0 mi Calm Calm - 0.00 in Snow Light Snow
1:45 PM 17.6 °F - 3.2 °F 53% 30.44 in 10.0 mi Calm Calm - 0.00 in   Scattered Clouds
1:51 PM 19.0 °F - 3.0 °F 50% 30.49 in 10.0 mi Calm Calm - 0.00 in   Scattered Clouds
2:51 PM 18.0 °F 11.1 °F 3.0 °F 52% 30.48 in 10.0 mi ESE 4.6 mph - N/A   Scattered Clouds
3:51 PM 18.0 °F 9.8 °F 3.9 °F 54% 30.47 in 10.0 mi SSE 5.8 mph - N/A   Scattered Clouds
4:51 PM 19.0 °F - 1.9 °F 47% 30.46 in 10.0 mi Calm Calm - N/A   Scattered Clouds
5:51 PM 15.1 °F 4.2 °F 1.0 °F 54% 30.46 in 10.0 mi WSW 8.1 mph - N/A   Scattered Clouds
6:51 PM 12.0 °F 5.9 °F -0.9 °F 56% 30.45 in 10.0 mi West 3.5 mph - N/A   Scattered Clouds
7:51 PM 9.0 °F 0.6 °F -2.9 °F 59% 30.44 in 10.0 mi WSW 4.6 mph - N/A   Mostly Cloudy
8:51 PM 10.9 °F 4.7 °F -0.9 °F 59% 30.42 in 10.0 mi SSW 3.5 mph - N/A   Mostly Cloudy
9:51 PM 10.9 °F 4.7 °F -2.0 °F 56% 30.41 in 10.0 mi WSW 3.5 mph - N/A   Overcast
10:51 PM 10.9 °F - -0.9 °F 59% 30.40 in 10.0 mi Calm Calm - N/A   Overcast
11:51 PM 12.0 °F 5.9 °F -0.0 °F 59% 30.38 in 10.0 mi SW 3.5 mph - N/A   Overcast